[[[{"header":{"parameterUnit":"kt","parameterCategory":2,"dx":1,"dy":1,"la1":30.253999710083008,"la2":30.299108505249023,"lo1":-89.0895004272461,"lo2":-89.04439544677734,"nx":28,"ny":28,"refTime":"2022-09-27T15:00:00:Z","depth":"0","parameterNumber":2,"parameterNumberName":"U-component_of_CURRENTS"},"data":[-0.2329,-0.2266,-0.2269,-0.2227,-0.2233,-0.2211,-0.223,-0.2391,-0.2666,-0.3214,-0.3734,-0.4168,-0.4379,-0.4486,-0.4327,-0.4132,-0.3913,-0.3779,-0.3686,-0.3823,-0.3805,-0.3788,-0.3798,-0.3959,-0.396,-0.3504,-0.3502,-0.35,-0.2405,-0.2388,-0.2374,-0.2368,-0.2368,-0.2402,-0.2469,-0.2522,-0.2681,-0.3067,-0.328,-0.3781,-0.391,-0.4028,-0.4109,-0.3972,-0.3781,-0.382,-0.3636,-0.359,-0.3699,-0.3711,-0.3856,-0.3856,-0.3856,-0.3856,-0.3856,-0.3856,-0.2537,-0.2506,-0.2493,-0.2483,-0.2502,-0.252,-0.2524,-0.2651,-0.276,-0.2984,-0.3101,-0.3401,-0.3579,-0.3748,-0.3717,-0.3739,-0.3585,-0.3644,-0.3648,-0.349,-0.3458,-0.3558,-0.367,-0.3669,-0.3668,-0.3668,-0.3667,0,-0.2621,-0.2621,-0.261,-0.2602,-0.2609,-0.262,-0.2659,-0.2703,-0.2816,-0.2928,-0.3075,-0.3181,-0.3354,-0.3495,-0.357,-0.3551,-0.3399,-0.3467,-0.346,-0.3522,-0.3377,-0.3338,-0.3384,-0.3483,-0.3481,-0.3479,-0.3478,-0.3478,-0.2699,-0.2687,-0.2696,-0.2688,-0.2692,-0.2703,-0.2724,-0.2802,-0.2844,-0.298,-0.3009,-0.3118,-0.3217,-0.3313,-0.3364,-0.341,-0.3304,-0.3422,-0.3379,-0.3387,-0.3393,-0.3242,-0.3206,-0.3457,-0.346,-0.3462,-0.3464,0,-0.273,-0.2748,-0.2738,-0.2767,-0.2773,-0.277,-0.2814,-0.2844,-0.291,-0.2963,-0.2978,-0.3068,-0.3139,-0.3163,-0.3196,-0.3187,-0.3214,-0.3238,-0.3293,-0.3305,-0.335,-0.3353,-0.3293,-0.326,-0.3304,-0.3306,-0.3307,0,-0.2774,-0.277,-0.2787,-0.2785,-0.2793,-0.2826,-0.2848,-0.2878,-0.2937,-0.2976,-0.3004,-0.305,-0.3052,-0.3091,-0.3085,-0.3135,-0.3118,-0.3139,-0.3145,-0.3184,-0.3191,-0.3207,-0.3212,-0.3085,-0.3085,-0.3084,-0.3084,0,-0.2792,-0.2804,-0.2799,-0.2804,-0.2837,-0.2847,-0.2864,-0.2913,-0.2936,-0.2979,-0.3008,-0.3026,-0.3039,-0.3041,-0.3057,-0.3029,-0.3097,-0.3059,-0.3116,-0.312,-0.3181,-0.3189,-0.3248,-0.3083,-0.3083,-0.3083,-0.3083,0,-0.2816,-0.282,-0.2818,-0.2841,-0.2846,-0.2856,-0.2897,-0.2911,-0.2956,-0.2971,-0.2984,-0.2992,-0.3008,-0.2983,-0.301,-0.299,-0.2995,-0.3002,-0.3004,-0.3061,-0.3049,-0.3142,-0.3201,-0.3205,-0.302,-0.302,-0.3019,0,-0.283,-0.283,-0.2838,-0.2842,-0.2845,-0.2866,-0.2889,-0.291,-0.2924,-0.2947,-0.295,-0.2962,-0.294,-0.2943,-0.2948,-0.2963,-0.2975,-0.2949,-0.2983,-0.2984,-0.3028,-0.307,-0.3126,-0.3185,-0.3011,-0.3012,-0.3012,0,-0.2838,-0.2843,-0.2841,-0.2842,-0.2858,-0.2865,-0.2883,-0.2901,-0.2922,-0.2912,-0.2932,-0.293,-0.2929,-0.2933,-0.293,-0.2939,-0.2962,-0.2928,-0.2929,-0.2947,-0.2996,-0.3051,-0.3062,-0.2949,-0.295,-0.2951,-0.3006,0,-0.2843,-0.2844,-0.2847,-0.2852,-0.286,-0.2865,-0.2878,-0.2886,-0.2886,-0.2891,-0.2901,-0.2896,-0.2903,-0.2903,-0.2898,-0.2919,-0.2919,-0.291,-0.2903,-0.2917,-0.294,-0.2945,-0.2883,-0.2883,-0.2883,-0.2883,0,0,-0.2846,-0.2845,-0.2851,-0.2854,-0.2859,-0.2868,-0.2872,-0.2877,-0.2879,-0.2885,-0.2871,-0.2881,-0.2878,-0.2895,-0.2895,-0.2892,-0.2899,-0.2884,-0.2909,-0.2911,-0.2914,-0.2936,-0.2941,-0.2883,-0.2883,-0.2883,-0.2883,0,-0.2845,-0.2851,-0.2849,-0.2854,-0.286,-0.2866,-0.287,-0.2874,-0.2873,-0.2872,-0.2873,-0.2877,-0.2869,-0.2875,-0.2877,-0.2889,-0.2889,-0.2885,-0.2894,-0.2908,-0.291,-0.2913,-0.2935,-0.294,-0.2883,-0.2883,-0.2883,0,-0.2844,-0.2849,-0.2849,-0.2858,-0.286,-0.2866,-0.2865,-0.2871,-0.2875,-0.2866,-0.2864,-0.2862,-0.2864,-0.2864,-0.2865,-0.286,-0.288,-0.2865,-0.2866,-0.2874,-0.2888,-0.2891,-0.2894,-0.2856,-0.2856,-0.2856,0,0,-0.2844,-0.2845,-0.2854,-0.2859,-0.2863,-0.2865,-0.2868,-0.2868,-0.2869,-0.2867,-0.2861,-0.2859,-0.2861,-0.2858,-0.2858,-0.2858,-0.2868,-0.2861,-0.2863,-0.2863,-0.2872,-0.2886,-0.2889,-0.2855,-0.2855,-0.2855,0,0,-0.2845,-0.2852,-0.285,-0.2859,-0.2863,-0.2868,-0.2868,-0.287,-0.2866,-0.2863,-0.2857,-0.2855,-0.2857,-0.2854,-0.2848,-0.2854,-0.285,-0.2851,-0.285,-0.2852,-0.2853,-0.2862,-0.2838,0,0,0,0,0,-0.2846,-0.2852,-0.285,-0.2852,-0.286,-0.2869,-0.2869,-0.2867,-0.2866,-0.2865,-0.286,-0.2854,-0.285,-0.2844,-0.2843,-0.2846,-0.2848,-0.285,-0.2851,-0.285,-0.2852,-0.2853,0,0,0,0,0,0,-0.2847,-0.285,-0.285,-0.2857,-0.2859,-0.2868,-0.2863,-0.2862,-0.2865,-0.2864,-0.2856,-0.2854,-0.2847,-0.2844,-0.2843,-0.2846,-0.2838,-0.2849,-0.285,-0.2851,-0.2851,-0.2852,-0.2853,0,0,0,0,0,-0.2848,-0.285,-0.2864,-0.2856,-0.2858,-0.2858,-0.2863,-0.2862,-0.2861,-0.2856,-0.2854,-0.2861,-0.2847,-0.2845,-0.2844,-0.2847,-0.2839,-0.2839,-0.285,-0.285,-0.2851,-0.2851,0,0,0,0,0,0,-0.2848,-0.2843,-0.2864,-0.2865,-0.2855,-0.2857,-0.2858,-0.2862,-0.2852,-0.2851,-0.286,-0.2859,-0.2847,-0.2846,-0.2845,-0.2847,-0.284,-0.2839,-0.2839,-0.285,-0.2851,-0.2851,0,0,0,0,0,0,-0.2842,-0.2844,-0.2864,-0.2863,-0.2863,-0.2856,-0.2857,-0.2854,-0.2851,-0.2856,-0.2855,-0.286,-0.2849,-0.2846,-0.2845,-0.2841,-0.284,-0.284,-0.2839,-0.2839,-0.2851,-0.2851,0,0,0,0,0,0,-0.2843,-0.2844,-0.2863,-0.2863,-0.2863,-0.2864,-0.2853,-0.286,-0.2856,-0.2856,-0.2855,-0.2855,-0.2849,-0.2848,-0.2846,-0.2842,-0.2841,-0.284,-0.284,-0.284,-0.2839,0,0,0,0,0,0,0,-0.2843,-0.2837,-0.2866,-0.2863,-0.2862,-0.2869,-0.2868,-0.2868,-0.2856,-0.2856,-0.2856,-0.2855,-0.2842,-0.2841,-0.2841,-0.2842,0,0,-0.284,-0.284,0,0,0,0,0,0,0,0,-0.2837,-0.2837,-0.2866,-0.2866,-0.2867,-0.2869,-0.2868,-0.2868,-0.2856,-0.2856,-0.2856,-0.2855,-0.2842,-0.2841,-0.2841,0,0,0,0,0,0,0,0,0,0,0,0,0,0,0,-0.2866,-0.2866,0,-0.2869,-0.2868,-0.2868,-0.2856,-0.2856,-0.2856,-0.2855,-0.2842,-0.2841,-0.2841,0,0,0,0,0,0,0,0,0,0,0,0,0,0,0,0,0,0,0,0,0,0,0,0,0,0,0,0,0,0,0,0,0,0,0,0,0,0,0,0,0,0,0,0,0,0,0,0,0,0,0,0,0,0,0,0,0,0,0,0,0,0,0,0,0,0,0,0,0]}],[{"header":{"parameterUnit":"kt","parameterCategory":2,"dx":1,"dy":1,"la1":30.253999710083008,"la2":30.299108505249023,"lo1":-89.0895004272461,"lo2":-89.04439544677734,"nx":28,"ny":28,"refTime":"2022-09-27T15:00:00:Z","depth":"0","parameterNumber":3,"parameterNumberName":"V-component_of_CURRENTS"},"data":[-0.1538,-0.163,-0.1694,-0.1898,-0.1983,-0.2144,-0.2219,-0.2372,-0.2449,-0.2556,-0.2494,-0.2419,-0.1769,-0.0934,-0.06,-0.0589,-0.0633,-0.0565,-0.0597,-0.0636,-0.0635,-0.0634,-0.0647,-0.0641,-0.0641,-0.0658,-0.0658,-0.0657,-0.1523,-0.1587,-0.1669,-0.1775,-0.1885,-0.1881,-0.1975,-0.2073,-0.2197,-0.2231,-0.2225,-0.1956,-0.1656,-0.1286,-0.08,-0.0679,-0.0682,-0.0633,-0.0594,-0.0686,-0.0702,-0.0721,-0.073,-0.073,-0.073,-0.073,-0.073,-0.073,-0.1495,-0.1537,-0.1587,-0.1666,-0.1726,-0.1807,-0.1871,-0.1911,-0.196,-0.2011,-0.1851,-0.1829,-0.1467,-0.1081,-0.0929,-0.0657,-0.0633,-0.063,-0.06,-0.0525,-0.0618,-0.0632,-0.0605,-0.0604,-0.0603,-0.0602,-0.0602,0,-0.1469,-0.1481,-0.1508,-0.1583,-0.1621,-0.1665,-0.1686,-0.1711,-0.1661,-0.1662,-0.1633,-0.1567,-0.1291,-0.1124,-0.0851,-0.0732,-0.0621,-0.0603,-0.0583,-0.0663,-0.0596,-0.067,-0.0684,-0.0683,-0.0682,-0.0682,-0.0682,-0.0682,-0.1431,-0.1447,-0.1472,-0.1505,-0.1506,-0.1524,-0.1542,-0.1491,-0.1505,-0.1428,-0.1434,-0.1299,-0.123,-0.0996,-0.0802,-0.0633,-0.0613,-0.06,-0.0606,-0.0595,-0.0554,-0.0482,-0.0565,-0.0677,-0.0677,-0.0678,-0.0678,0,-0.1412,-0.1401,-0.1423,-0.1415,-0.1417,-0.1434,-0.1424,-0.1437,-0.1371,-0.1364,-0.1338,-0.1204,-0.1088,-0.0936,-0.0808,-0.0723,-0.0622,-0.0591,-0.067,-0.0659,-0.0587,-0.0564,-0.0455,-0.0544,-0.0526,-0.0526,-0.0525,0,-0.1365,-0.1375,-0.1361,-0.1369,-0.1392,-0.1344,-0.1358,-0.1318,-0.1268,-0.1266,-0.1145,-0.1119,-0.0963,-0.0882,-0.0796,-0.069,-0.0701,-0.0623,-0.0602,-0.0666,-0.0668,-0.0637,-0.0614,-0.0638,-0.0638,-0.0638,-0.0638,0,-0.1334,-0.1318,-0.1331,-0.1321,-0.1288,-0.1284,-0.1263,-0.1206,-0.1191,-0.1114,-0.1095,-0.1,-0.0953,-0.0881,-0.0774,-0.0772,-0.0687,-0.0673,-0.0615,-0.0612,-0.0646,-0.0647,-0.0652,-0.0639,-0.0639,-0.0639,-0.0639,0,-0.1283,-0.1282,-0.1282,-0.1271,-0.1262,-0.1244,-0.1214,-0.1179,-0.1105,-0.1065,-0.1005,-0.0942,-0.0876,-0.0845,-0.0758,-0.0767,-0.0727,-0.0686,-0.0683,-0.064,-0.0611,-0.0646,-0.0668,-0.0655,-0.0643,-0.0643,-0.0643,0,-0.1273,-0.1267,-0.1235,-0.1225,-0.1217,-0.116,-0.1132,-0.1078,-0.1031,-0.0987,-0.0914,-0.0868,-0.082,-0.08,-0.0771,-0.0711,-0.0698,-0.0711,-0.0641,-0.0639,-0.0617,-0.063,-0.0698,-0.0671,-0.0646,-0.0646,-0.0646,0,-0.1261,-0.1225,-0.1222,-0.1222,-0.1155,-0.1127,-0.1088,-0.1032,-0.1021,-0.0937,-0.0909,-0.0837,-0.0803,-0.0772,-0.0726,-0.0705,-0.07,-0.068,-0.0677,-0.0668,-0.0662,-0.0636,-0.0632,-0.0683,-0.0683,-0.0683,-0.0648,0,-0.1236,-0.1225,-0.1214,-0.1177,-0.114,-0.1109,-0.1042,-0.1007,-0.0964,-0.091,-0.0861,-0.0793,-0.0738,-0.0721,-0.0686,-0.0672,-0.0658,-0.064,-0.062,-0.0639,-0.062,-0.0619,-0.0623,-0.0622,-0.0621,-0.062,0,0,-0.1237,-0.1222,-0.1177,-0.1156,-0.1127,-0.1054,-0.1034,-0.0982,-0.0888,-0.0866,-0.0843,-0.0746,-0.0701,-0.066,-0.0659,-0.0635,-0.062,-0.0628,-0.063,-0.0632,-0.0633,-0.0616,-0.0616,-0.0619,-0.0619,-0.0618,-0.0618,0,-0.1223,-0.1203,-0.1196,-0.1154,-0.1087,-0.1036,-0.1028,-0.0938,-0.09,-0.0848,-0.0799,-0.0762,-0.0688,-0.0649,-0.0622,-0.0626,-0.0593,-0.0616,-0.0643,-0.0625,-0.0627,-0.0629,-0.0613,-0.0613,-0.0616,-0.0616,-0.0616,0,-0.1215,-0.118,-0.1171,-0.1108,-0.1053,-0.1016,-0.0963,-0.0909,-0.0877,-0.081,-0.0758,-0.0716,-0.066,-0.0623,-0.0606,-0.0595,-0.0569,-0.057,-0.0574,-0.0576,-0.0555,-0.0558,-0.0561,-0.0527,-0.0527,-0.0527,0,0,-0.1206,-0.1195,-0.1118,-0.1097,-0.1072,-0.0987,-0.0949,-0.0903,-0.0838,-0.0811,-0.0754,-0.0705,-0.0664,-0.0639,-0.0596,-0.0566,-0.0547,-0.0561,-0.0566,-0.0569,-0.0573,-0.0554,-0.0557,-0.0526,-0.0526,-0.0526,0,0,-0.1187,-0.1124,-0.1106,-0.1082,-0.1018,-0.0915,-0.0889,-0.0848,-0.0791,-0.0789,-0.0722,-0.0706,-0.0672,-0.0638,-0.0639,-0.0591,-0.0572,-0.057,-0.0613,-0.0617,-0.0621,-0.0636,-0.0597,0,0,0,0,0,-0.1138,-0.1137,-0.1122,-0.1108,-0.1008,-0.0932,-0.0913,-0.0841,-0.0824,-0.0807,-0.0755,-0.0726,-0.0625,-0.0624,-0.0611,-0.0612,-0.0521,-0.0522,-0.0523,-0.057,-0.0575,-0.058,0,0,0,0,0,0,-0.1132,-0.1118,-0.112,-0.1026,-0.1001,-0.0932,-0.0891,-0.087,-0.0824,-0.0817,-0.0736,-0.0724,-0.0677,-0.0628,-0.0617,-0.0619,-0.06,-0.0522,-0.0522,-0.0523,-0.0572,-0.0576,-0.058,0,0,0,0,0,-0.1127,-0.1115,-0.0985,-0.1023,-0.1003,-0.0903,-0.0891,-0.0874,-0.0836,-0.0757,-0.0742,-0.0785,-0.0679,-0.0665,-0.0621,-0.0626,-0.0608,-0.0604,-0.0522,-0.0523,-0.0523,-0.0574,0,0,0,0,0,0,-0.1123,-0.109,-0.0978,-0.0967,-0.1026,-0.0905,-0.0888,-0.0877,-0.0779,-0.0763,-0.0804,-0.08,-0.0679,-0.0669,-0.0659,-0.0631,-0.0614,-0.061,-0.0607,-0.0523,-0.0523,-0.0523,0,0,0,0,0,0,-0.1095,-0.1082,-0.0972,-0.098,-0.0969,-0.0906,-0.0892,-0.085,-0.078,-0.0831,-0.0824,-0.0804,-0.0706,-0.0671,-0.0663,-0.06,-0.0619,-0.0615,-0.0612,-0.0611,-0.0523,-0.0523,0,0,0,0,0,0,-0.1087,-0.1076,-0.0983,-0.0974,-0.0965,-0.0835,-0.0868,-0.0779,-0.0762,-0.0838,-0.0762,-0.0761,-0.0711,-0.07,-0.0667,-0.0607,-0.0602,-0.0619,-0.0616,-0.0614,-0.0613,0,0,0,0,0,0,0,-0.1081,-0.1189,-0.1044,-0.0969,-0.0961,-0.0864,-0.0861,-0.0858,-0.0762,-0.0762,-0.0762,-0.0761,-0.0642,-0.0638,-0.0633,-0.0612,0,0,-0.0619,-0.0617,0,0,0,0,0,0,0,0,-0.119,-0.1189,-0.1043,-0.1041,-0.1039,-0.0864,-0.0861,-0.0859,-0.0762,-0.0762,-0.0762,-0.0761,-0.0641,-0.0637,-0.0634,0,0,0,0,0,0,0,0,0,0,0,0,0,0,0,-0.1043,-0.1041,0,-0.0864,-0.0862,-0.0859,-0.0762,-0.0762,-0.0762,-0.0762,-0.064,-0.0637,-0.0634,0,0,0,0,0,0,0,0,0,0,0,0,0,0,0,0,0,0,0,0,0,0,0,0,0,0,0,0,0,0,0,0,0,0,0,0,0,0,0,0,0,0,0,0,0,0,0,0,0,0,0,0,0,0,0,0,0,0,0,0,0,0,0,0,0,0,0,0,0]}]],[[{"header":{"parameterUnit":"kt","parameterCategory":2,"dx":1,"dy":1,"la1":30.253999710083008,"la2":30.299108505249023,"lo1":-89.0895004272461,"lo2":-89.04439544677734,"nx":28,"ny":28,"refTime":"2022-09-27T15:00:00:Z","depth":"2","parameterNumber":2,"parameterNumberName":"U-component_of_CURRENTS"},"data":[-0.2259,-0.2189,-0.2192,-0.2143,-0.2164,-0.2111,-0.2129,-0.2132,-0.2196,-0.2231,-0.2302,-0.2439,-0.2495,-0.2101,-0.1962,-0.1817,-0.1892,-0.1734,-0.2512,-0.2278,-0.2307,-0.2326,-0.2226,0,0,0,0,0,-0.2338,-0.2339,-0.2326,-0.2321,-0.2303,-0.2356,-0.2422,-0.2395,-0.2473,-0.2621,-0.2724,-0.252,-0.2473,-0.2477,-0.2277,-0.2267,-0.2126,-0.2185,-0.1952,-0.1988,-0.202,-0.1926,-0.1668,-0.1666,-0.1663,-0.1661,0,0,-0.2486,-0.2456,-0.2443,-0.2434,-0.2455,-0.2473,-0.2476,-0.2553,-0.2643,-0.2747,-0.2915,-0.2986,-0.2934,-0.2887,-0.2774,-0.268,-0.2882,-0.2727,-0.2729,-0.2737,-0.2689,-0.2667,-0.263,-0.2634,-0.2637,-0.264,-0.2643,0,-0.2569,-0.2569,-0.2559,-0.2552,-0.2561,-0.2572,-0.2611,-0.2655,-0.2768,-0.2866,-0.3011,-0.3102,-0.318,-0.308,-0.3113,-0.3065,-0.2954,-0.2917,-0.328,-0.2568,-0.2535,-0.2528,-0.2539,-0.2483,-0.2486,-0.2489,-0.2491,-0.2492,-0.2646,-0.2634,-0.2644,-0.2637,-0.2642,-0.2655,-0.2675,-0.2753,-0.2795,-0.2931,-0.2959,-0.3068,-0.3152,-0.3247,-0.3196,-0.3213,-0.3262,-0.2981,-0.2887,-0.3195,-0.3192,-0.3183,-0.3176,-0.2528,-0.2523,-0.252,-0.2516,0,-0.2676,-0.2694,-0.2686,-0.2715,-0.2722,-0.2719,-0.2765,-0.2795,-0.2861,-0.2914,-0.2929,-0.3019,-0.3089,-0.3113,-0.3146,-0.3136,-0.3166,-0.3185,-0.2869,-0.284,-0.3166,-0.3161,-0.3245,-0.3248,-0.325,-0.3252,-0.3253,0,-0.272,-0.2716,-0.2734,-0.2732,-0.2741,-0.2774,-0.2797,-0.2828,-0.2888,-0.2926,-0.2954,-0.3,-0.3003,-0.3042,-0.3035,-0.3084,-0.3068,-0.3087,-0.3093,-0.2807,-0.2788,-0.3003,-0.2998,-0.3035,-0.3034,-0.3034,-0.3033,0,-0.2738,-0.275,-0.2745,-0.275,-0.2783,-0.2795,-0.2812,-0.2861,-0.2884,-0.2928,-0.2957,-0.2975,-0.2989,-0.2991,-0.3007,-0.2979,-0.3046,-0.3008,-0.3064,-0.3068,-0.2812,-0.2793,-0.3033,-0.3033,-0.3033,-0.3032,-0.3032,0,-0.2761,-0.2765,-0.2764,-0.2786,-0.2792,-0.2803,-0.2844,-0.2858,-0.2904,-0.292,-0.2933,-0.2941,-0.2957,-0.2933,-0.2959,-0.294,-0.2944,-0.2951,-0.2953,-0.3008,-0.2996,-0.2751,-0.273,-0.297,-0.2969,-0.2969,-0.2968,0,-0.2775,-0.2775,-0.2782,-0.2788,-0.2791,-0.2812,-0.2835,-0.2856,-0.2871,-0.2895,-0.2897,-0.2911,-0.2889,-0.2892,-0.2897,-0.2912,-0.2924,-0.2898,-0.2931,-0.2933,-0.2975,-0.3017,-0.2702,-0.2729,-0.296,-0.2961,-0.2961,0,-0.2782,-0.2787,-0.2786,-0.2786,-0.2803,-0.2809,-0.2828,-0.2846,-0.2868,-0.2859,-0.288,-0.2878,-0.2877,-0.2881,-0.2878,-0.2888,-0.2911,-0.2877,-0.2877,-0.2896,-0.2945,-0.2998,-0.3009,-0.2898,-0.2899,-0.2899,-0.2955,0,-0.2788,-0.2789,-0.2792,-0.2796,-0.2804,-0.281,-0.2823,-0.2831,-0.2832,-0.2837,-0.2849,-0.2844,-0.2851,-0.2851,-0.2846,-0.2867,-0.2867,-0.2857,-0.2849,-0.2865,-0.2887,-0.2893,-0.283,-0.283,-0.283,-0.283,0,0,-0.279,-0.2789,-0.2794,-0.2797,-0.2802,-0.2812,-0.2815,-0.2822,-0.2824,-0.283,-0.2817,-0.2827,-0.2824,-0.2841,-0.2842,-0.2838,-0.2846,-0.2831,-0.2856,-0.2859,-0.2861,-0.2883,-0.2888,-0.2829,-0.2829,-0.2829,-0.2829,0,-0.2789,-0.2794,-0.2792,-0.2798,-0.2804,-0.2809,-0.2813,-0.2818,-0.2818,-0.2818,-0.2818,-0.2822,-0.2815,-0.2821,-0.2823,-0.2835,-0.2835,-0.2832,-0.2841,-0.2855,-0.2858,-0.286,-0.2882,-0.2887,-0.2829,-0.2829,-0.2829,0,-0.2788,-0.2792,-0.2792,-0.28,-0.2802,-0.2808,-0.2808,-0.2814,-0.2818,-0.2809,-0.2809,-0.2807,-0.2808,-0.2809,-0.281,-0.2805,-0.2826,-0.281,-0.2811,-0.2819,-0.2833,-0.2836,-0.2839,-0.28,-0.28,-0.28,0,0,-0.2787,-0.2787,-0.2796,-0.2801,-0.2804,-0.2807,-0.281,-0.281,-0.2812,-0.281,-0.2805,-0.2803,-0.2806,-0.2803,-0.2803,-0.2802,-0.2813,-0.2806,-0.2808,-0.2809,-0.2817,-0.2831,-0.2835,-0.28,-0.28,-0.2799,0,0,-0.2787,-0.2793,-0.2791,-0.28,-0.2804,-0.2809,-0.281,-0.2812,-0.2809,-0.2807,-0.2801,-0.2799,-0.2802,-0.2798,-0.2792,-0.2799,-0.2794,-0.2795,-0.2795,-0.2797,-0.2798,-0.2808,-0.2782,0,0,0,0,0,-0.2788,-0.2794,-0.2792,-0.2794,-0.2801,-0.281,-0.281,-0.2808,-0.2808,-0.2808,-0.2804,-0.2798,-0.2794,-0.2788,-0.2787,-0.279,-0.2792,-0.2794,-0.2795,-0.2795,-0.2797,-0.2799,0,0,0,0,0,0,-0.2789,-0.2791,-0.2792,-0.2798,-0.28,-0.2809,-0.2804,-0.2804,-0.2808,-0.2807,-0.2799,-0.2798,-0.279,-0.2788,-0.2787,-0.279,-0.2782,-0.2793,-0.2794,-0.2795,-0.2796,-0.2797,-0.2799,0,0,0,0,0,-0.2789,-0.2792,-0.2805,-0.2797,-0.2799,-0.28,-0.2804,-0.2803,-0.2804,-0.2798,-0.2796,-0.2804,-0.279,-0.2789,-0.2788,-0.2791,-0.2783,-0.2782,-0.2794,-0.2794,-0.2795,-0.2797,0,0,0,0,0,0,-0.279,-0.2785,-0.2805,-0.2805,-0.2797,-0.2799,-0.28,-0.2803,-0.2794,-0.2793,-0.2802,-0.2802,-0.279,-0.2789,-0.2788,-0.2792,-0.2783,-0.2783,-0.2783,-0.2794,-0.2795,-0.2795,0,0,0,0,0,0,-0.2784,-0.2786,-0.2805,-0.2804,-0.2804,-0.2798,-0.2799,-0.2796,-0.2794,-0.2798,-0.2798,-0.2802,-0.2792,-0.2789,-0.2789,-0.2784,-0.2784,-0.2783,-0.2783,-0.2783,-0.2795,-0.2795,0,0,0,0,0,0,-0.2785,-0.2786,-0.2804,-0.2804,-0.2804,-0.2806,-0.2795,-0.2801,-0.2798,-0.2798,-0.2798,-0.2798,-0.2793,-0.2792,-0.2789,-0.2784,-0.2784,-0.2784,-0.2784,-0.2783,-0.2783,0,0,0,0,0,0,0,-0.2785,-0.278,-0.2806,-0.2804,-0.2804,-0.2809,-0.2809,-0.2809,-0.2798,-0.2798,-0.2798,-0.2798,-0.2786,-0.2785,-0.2785,-0.2785,0,0,-0.2784,-0.2784,0,0,0,0,0,0,0,0,-0.2779,-0.278,-0.2806,-0.2807,-0.2807,-0.2809,-0.2809,-0.2809,-0.2798,-0.2798,-0.2798,-0.2798,-0.2786,-0.2785,-0.2785,0,0,0,0,0,0,0,0,0,0,0,0,0,0,0,-0.2806,-0.2807,0,-0.2809,-0.2809,-0.2809,-0.2798,-0.2798,-0.2798,-0.2798,-0.2786,-0.2785,-0.2785,0,0,0,0,0,0,0,0,0,0,0,0,0,0,0,0,0,0,0,0,0,0,0,0,0,0,0,0,0,0,0,0,0,0,0,0,0,0,0,0,0,0,0,0,0,0,0,0,0,0,0,0,0,0,0,0,0,0,0,0,0,0,0,0,0,0,0,0,0]}],[{"header":{"parameterUnit":"kt","parameterCategory":2,"dx":1,"dy":1,"la1":30.253999710083008,"la2":30.299108505249023,"lo1":-89.0895004272461,"lo2":-89.04439544677734,"nx":28,"ny":28,"refTime":"2022-09-27T15:00:00:Z","depth":"2","parameterNumber":3,"parameterNumberName":"V-component_of_CURRENTS"},"data":[-0.1408,-0.1486,-0.1548,-0.1728,-0.1838,-0.193,-0.2001,-0.1953,-0.1848,-0.1706,-0.154,-0.1188,-0.0804,-0.0397,-0.0021,0.0227,0.0147,0.0249,-0.0082,-0.0093,-0.0119,0.0082,0.011,0,0,0,0,0,-0.14,-0.149,-0.1571,-0.1675,-0.1747,-0.1781,-0.1871,-0.1856,-0.1871,-0.1726,-0.1609,-0.1222,-0.0786,-0.0468,0.004,0.0254,0.0293,0.0231,0.0271,0.0247,0.0226,0.0259,0.0462,0.0463,0.0464,0.0464,0,0,-0.1398,-0.144,-0.1489,-0.1568,-0.1627,-0.1706,-0.1768,-0.1739,-0.1763,-0.1684,-0.1605,-0.1418,-0.1054,-0.0552,-0.029,-0.0027,-0.0103,-0.006,-0.0067,-0.0078,-0.006,-0.0053,0.0058,0.0056,0.0055,0.0053,0.0052,0,-0.1371,-0.1383,-0.1409,-0.1484,-0.1522,-0.1564,-0.1584,-0.1608,-0.1557,-0.1541,-0.151,-0.1432,-0.1093,-0.077,-0.0471,-0.0352,-0.0283,-0.0218,-0.0446,-0.0138,-0.0131,-0.0114,-0.0128,-0.0038,-0.0041,-0.0043,-0.0044,-0.0045,-0.1331,-0.1347,-0.1372,-0.1405,-0.1406,-0.1424,-0.1442,-0.1389,-0.1402,-0.1324,-0.1329,-0.1194,-0.1112,-0.0879,-0.0613,-0.0425,-0.051,-0.0276,-0.0252,-0.0463,-0.0445,-0.0449,-0.0451,-0.0072,-0.0069,-0.0066,-0.0064,0,-0.1311,-0.13,-0.1323,-0.1313,-0.1315,-0.1333,-0.1321,-0.1334,-0.1268,-0.126,-0.1234,-0.1099,-0.0984,-0.0832,-0.0703,-0.0618,-0.0518,-0.0487,-0.0354,-0.0318,-0.0456,-0.0458,-0.0426,-0.0425,-0.0424,-0.0423,-0.0422,0,-0.1264,-0.1273,-0.1259,-0.1267,-0.129,-0.1241,-0.1254,-0.1214,-0.1163,-0.116,-0.104,-0.1013,-0.0858,-0.0776,-0.0691,-0.0585,-0.0596,-0.0518,-0.0497,-0.0375,-0.0362,-0.0515,-0.0514,-0.0531,-0.0532,-0.0532,-0.0532,0,-0.1232,-0.1215,-0.1228,-0.1218,-0.1183,-0.118,-0.1158,-0.1101,-0.1085,-0.1008,-0.0989,-0.0894,-0.0847,-0.0775,-0.0669,-0.0667,-0.0581,-0.0566,-0.0509,-0.0507,-0.0359,-0.0344,-0.0533,-0.0533,-0.0533,-0.0533,-0.0533,0,-0.118,-0.1178,-0.1179,-0.1166,-0.1157,-0.1139,-0.1108,-0.1073,-0.0998,-0.0958,-0.0898,-0.0835,-0.0769,-0.0739,-0.0652,-0.0662,-0.0622,-0.058,-0.0577,-0.0534,-0.0504,-0.0346,-0.0324,-0.0537,-0.0537,-0.0538,-0.0538,0,-0.1169,-0.1162,-0.1131,-0.112,-0.1112,-0.1054,-0.1026,-0.0972,-0.0924,-0.088,-0.0807,-0.0761,-0.0714,-0.0694,-0.0665,-0.0604,-0.0591,-0.0605,-0.0534,-0.0532,-0.0511,-0.0525,-0.0379,-0.0335,-0.054,-0.054,-0.054,0,-0.1156,-0.112,-0.1117,-0.1116,-0.1049,-0.1021,-0.0981,-0.0925,-0.0914,-0.0831,-0.0802,-0.073,-0.0697,-0.0665,-0.0619,-0.0598,-0.0593,-0.0573,-0.057,-0.0562,-0.0556,-0.0531,-0.0527,-0.0576,-0.0576,-0.0576,-0.0542,0,-0.1129,-0.1119,-0.1108,-0.1071,-0.1033,-0.1003,-0.0935,-0.0901,-0.0858,-0.0804,-0.0754,-0.0687,-0.0631,-0.0614,-0.0579,-0.0564,-0.0551,-0.0532,-0.0511,-0.0531,-0.0513,-0.0511,-0.0514,-0.0513,-0.0513,-0.0512,0,0,-0.113,-0.1114,-0.1069,-0.1049,-0.1019,-0.0947,-0.0927,-0.0874,-0.078,-0.0758,-0.0737,-0.0638,-0.0593,-0.0551,-0.055,-0.0527,-0.0512,-0.0519,-0.0522,-0.0524,-0.0525,-0.0509,-0.0508,-0.051,-0.051,-0.051,-0.051,0,-0.1114,-0.1094,-0.1088,-0.1046,-0.0979,-0.0928,-0.0921,-0.083,-0.0793,-0.0741,-0.0691,-0.0654,-0.058,-0.054,-0.0512,-0.0517,-0.0484,-0.0508,-0.0535,-0.0516,-0.0519,-0.052,-0.0505,-0.0506,-0.0508,-0.0508,-0.0508,0,-0.1105,-0.107,-0.1061,-0.0998,-0.0944,-0.0906,-0.0853,-0.08,-0.0768,-0.07,-0.0649,-0.0607,-0.055,-0.0513,-0.0496,-0.0485,-0.0459,-0.046,-0.0464,-0.0466,-0.0445,-0.0448,-0.045,-0.0415,-0.0415,-0.0415,0,0,-0.1096,-0.1085,-0.1007,-0.0987,-0.0962,-0.0877,-0.0839,-0.0793,-0.0728,-0.0701,-0.0645,-0.0595,-0.0554,-0.0528,-0.0485,-0.0455,-0.0435,-0.0451,-0.0455,-0.0459,-0.0463,-0.0443,-0.0446,-0.0414,-0.0414,-0.0414,0,0,-0.1076,-0.1013,-0.0995,-0.0972,-0.0907,-0.0804,-0.0779,-0.0737,-0.068,-0.0679,-0.0612,-0.0596,-0.0562,-0.0528,-0.0529,-0.0481,-0.0461,-0.0459,-0.0503,-0.0507,-0.0512,-0.0526,-0.0485,0,0,0,0,0,-0.1026,-0.1025,-0.1011,-0.0997,-0.0897,-0.082,-0.0802,-0.073,-0.0714,-0.0697,-0.0645,-0.0616,-0.0514,-0.0513,-0.05,-0.0502,-0.0409,-0.041,-0.0411,-0.046,-0.0465,-0.047,0,0,0,0,0,0,-0.102,-0.1006,-0.1009,-0.0914,-0.0889,-0.082,-0.0779,-0.0759,-0.0714,-0.0706,-0.0626,-0.0613,-0.0566,-0.0517,-0.0506,-0.0509,-0.0489,-0.041,-0.041,-0.0411,-0.0462,-0.0466,-0.047,0,0,0,0,0,-0.1015,-0.1003,-0.0873,-0.0911,-0.089,-0.0792,-0.0779,-0.0762,-0.0726,-0.0646,-0.0631,-0.0675,-0.0567,-0.0554,-0.051,-0.0515,-0.0497,-0.0493,-0.041,-0.0411,-0.0411,-0.0464,0,0,0,0,0,0,-0.1011,-0.0978,-0.0866,-0.0855,-0.0915,-0.0793,-0.0776,-0.0765,-0.0667,-0.0651,-0.0693,-0.0689,-0.0568,-0.0557,-0.0547,-0.052,-0.0503,-0.0499,-0.0496,-0.0411,-0.0411,-0.0412,0,0,0,0,0,0,-0.0983,-0.097,-0.086,-0.0869,-0.0858,-0.0795,-0.078,-0.0738,-0.0668,-0.072,-0.0712,-0.0692,-0.0595,-0.056,-0.0552,-0.0487,-0.0508,-0.0504,-0.0501,-0.0499,-0.0411,-0.0411,0,0,0,0,0,0,-0.0975,-0.0963,-0.0871,-0.0863,-0.0853,-0.0723,-0.0756,-0.0667,-0.0651,-0.0726,-0.065,-0.065,-0.06,-0.0589,-0.0555,-0.0494,-0.0489,-0.0508,-0.0505,-0.0503,-0.0502,0,0,0,0,0,0,0,-0.0969,-0.1077,-0.0932,-0.0858,-0.085,-0.0752,-0.0749,-0.0746,-0.0651,-0.0651,-0.065,-0.065,-0.0531,-0.0527,-0.0522,-0.05,0,0,-0.0508,-0.0506,0,0,0,0,0,0,0,0,-0.1078,-0.1077,-0.0931,-0.0929,-0.0927,-0.0752,-0.0749,-0.0747,-0.0651,-0.0651,-0.065,-0.065,-0.053,-0.0526,-0.0523,0,0,0,0,0,0,0,0,0,0,0,0,0,0,0,-0.0931,-0.0929,0,-0.0751,-0.0749,-0.0747,-0.0651,-0.0651,-0.0651,-0.065,-0.0529,-0.0526,-0.0523,0,0,0,0,0,0,0,0,0,0,0,0,0,0,0,0,0,0,0,0,0,0,0,0,0,0,0,0,0,0,0,0,0,0,0,0,0,0,0,0,0,0,0,0,0,0,0,0,0,0,0,0,0,0,0,0,0,0,0,0,0,0,0,0,0,0,0,0,0]}]],[[{"header":{"parameterUnit":"kt","parameterCategory":2,"dx":1,"dy":1,"la1":30.253999710083008,"la2":30.299108505249023,"lo1":-89.0895004272461,"lo2":-89.04439544677734,"nx":28,"ny":28,"refTime":"2022-09-27T15:00:00:Z","depth":"4","parameterNumber":2,"parameterNumberName":"U-component_of_CURRENTS"},"data":[-0.1283,-0.1308,-0.1325,-0.133,-0.1348,-0.1425,-0.1489,-0.1589,-0.1596,-0.1747,-0.1766,-0.1869,-0.1907,-0.2004,-0.1944,-0.1956,-0.1908,-0.2094,-0.2089,-0.2082,-0.2093,-0.2103,-0.2049,0,0,0,0,0,-0.1337,-0.1332,-0.1371,-0.1428,-0.1512,-0.1553,-0.1671,-0.1742,-0.1888,-0.1875,-0.1949,-0.1985,-0.1993,-0.2047,-0.1982,-0.2114,-0.2107,-0.2029,-0.2014,-0.2089,-0.2101,-0.2044,0,0,0,0,0,0,-0.1418,-0.1424,-0.1489,-0.1537,-0.1619,-0.1657,-0.1719,-0.1787,-0.1853,-0.2019,-0.2034,-0.213,-0.2228,-0.2187,-0.2187,-0.2153,-0.2109,-0.2023,-0.2038,-0.205,-0.1994,-0.195,-0.1862,0,0,0,0,0,-0.1486,-0.1539,-0.158,-0.1651,-0.1715,-0.1774,-0.1857,-0.1889,-0.202,-0.2135,-0.2177,-0.2192,-0.2236,-0.2239,-0.2239,-0.2213,-0.2264,-0.2229,-0.2234,-0.2177,-0.2158,-0.2146,-0.2149,-0.2147,-0.2149,-0.215,-0.2151,0,-0.1571,-0.1589,-0.1704,-0.1737,-0.1787,-0.1861,-0.1915,-0.2034,-0.2081,-0.2222,-0.224,-0.2325,-0.2369,-0.2311,-0.2351,-0.2319,-0.2296,-0.2262,-0.2201,-0.2177,-0.2162,-0.2163,-0.2163,-0.216,-0.216,-0.2159,-0.2158,0,-0.1612,-0.1678,-0.1728,-0.1836,-0.1873,-0.1909,-0.2021,-0.2069,-0.2165,-0.2228,-0.2253,-0.235,-0.2381,-0.2409,-0.2429,-0.2355,-0.2332,-0.2304,-0.2411,-0.2401,-0.2183,-0.2179,-0.2176,-0.2173,-0.217,-0.2167,-0.2165,0,-0.1685,-0.1721,-0.1817,-0.1837,-0.1898,-0.1965,-0.2036,-0.2094,-0.2182,-0.2231,-0.2291,-0.2331,-0.2365,-0.2393,-0.2381,-0.2335,-0.2401,-0.2268,-0.2252,-0.2341,-0.2337,-0.2332,-0.2327,-0.2379,-0.2379,-0.2379,-0.2378,0,-0.172,-0.1787,-0.1826,-0.1849,-0.1937,-0.198,-0.2028,-0.2112,-0.2157,-0.2236,-0.2279,-0.232,-0.2347,-0.235,-0.2358,-0.234,-0.2385,-0.2357,-0.226,-0.2253,-0.2329,-0.2324,-0.2378,-0.2378,-0.2378,-0.2378,-0.2378,0,-0.1762,-0.1793,-0.1837,-0.191,-0.1926,-0.1969,-0.2054,-0.2096,-0.2173,-0.2212,-0.2251,-0.2273,-0.2309,-0.2289,-0.2318,-0.2304,-0.2303,-0.2304,-0.2305,-0.2198,-0.2162,-0.2242,-0.2297,-0.2296,-0.2295,-0.2295,-0.2294,0,-0.1781,-0.1814,-0.1838,-0.1889,-0.1909,-0.1957,-0.2008,-0.206,-0.2106,-0.2162,-0.2184,-0.2229,-0.2216,-0.2236,-0.2249,-0.2261,-0.2275,-0.2254,-0.226,-0.2261,-0.2154,-0.2179,-0.2258,-0.2285,-0.2286,-0.2287,-0.2288,0,-0.1777,-0.1822,-0.1828,-0.1851,-0.1896,-0.1917,-0.1971,-0.2018,-0.2063,-0.21,-0.2149,-0.2185,-0.2195,-0.2208,-0.2212,-0.2227,-0.226,-0.2214,-0.2214,-0.2216,-0.2289,-0.2182,-0.2177,-0.2252,-0.2253,-0.2254,-0.2282,0,-0.1794,-0.1816,-0.1827,-0.1848,-0.1875,-0.1901,-0.1933,-0.1974,-0.2008,-0.2031,-0.2087,-0.2105,-0.2139,-0.215,-0.215,-0.2191,-0.2182,-0.2169,-0.2147,-0.2184,-0.2191,-0.2196,-0.2127,-0.2127,-0.2126,-0.2126,0,0,-0.1787,-0.1791,-0.1801,-0.1815,-0.1836,-0.1861,-0.1883,-0.1913,-0.1956,-0.1981,-0.1986,-0.2049,-0.2064,-0.2103,-0.212,-0.2124,-0.2127,-0.2121,-0.2167,-0.2171,-0.2176,-0.2184,-0.2189,-0.2125,-0.2125,-0.2125,-0.2124,0,-0.177,-0.1783,-0.1791,-0.1808,-0.1832,-0.1845,-0.186,-0.1888,-0.1917,-0.196,-0.1972,-0.2006,-0.2042,-0.2057,-0.2067,-0.2113,-0.2104,-0.2121,-0.2148,-0.2162,-0.2167,-0.2172,-0.2181,-0.2186,-0.2123,-0.2123,-0.2123,0,-0.1755,-0.1757,-0.1764,-0.1778,-0.1795,-0.1815,-0.1819,-0.1852,-0.188,-0.1884,-0.1942,-0.1957,-0.1972,-0.2009,-0.2029,-0.2018,-0.2078,-0.2061,-0.2064,-0.2069,-0.2082,-0.2088,-0.2094,-0.2019,-0.2018,-0.2018,0,0,-0.1744,-0.1751,-0.1758,-0.1774,-0.1783,-0.1804,-0.1822,-0.184,-0.1865,-0.1885,-0.1909,-0.1936,-0.1959,-0.1977,-0.1997,-0.2028,-0.2027,-0.2048,-0.2053,-0.2057,-0.2064,-0.2078,-0.2084,-0.2017,-0.2017,-0.2017,0,0,-0.1739,-0.174,-0.1746,-0.1759,-0.1778,-0.1791,-0.1815,-0.1832,-0.187,-0.1884,-0.1895,-0.1902,-0.1949,-0.1952,-0.1933,-0.1993,-0.1973,-0.1977,-0.1989,-0.1995,-0.2,-0.2002,-0.1921,0,0,0,0,0,-0.1723,-0.1734,-0.1739,-0.1742,-0.1763,-0.1782,-0.1788,-0.1816,-0.1832,-0.1854,-0.1882,-0.1879,-0.1945,-0.1929,-0.1934,-0.1958,-0.1999,-0.2002,-0.2005,-0.2029,-0.2036,-0.2041,0,0,0,0,0,0,-0.1724,-0.1726,-0.1739,-0.1747,-0.1752,-0.1781,-0.1786,-0.1794,-0.1831,-0.1837,-0.1874,-0.1879,-0.1881,-0.1926,-0.1931,-0.1954,-0.1919,-0.2001,-0.2003,-0.2006,-0.2032,-0.2037,-0.2041,0,0,0,0,0,-0.1725,-0.1726,-0.1751,-0.1748,-0.1753,-0.1788,-0.1786,-0.1793,-0.1832,-0.1841,-0.1849,-0.1857,-0.188,-0.1886,-0.1929,-0.1952,-0.1916,-0.1918,-0.2002,-0.2004,-0.2006,-0.2034,0,0,0,0,0,0,-0.1726,-0.1736,-0.1754,-0.1757,-0.1754,-0.1788,-0.1794,-0.1793,-0.1836,-0.1843,-0.1821,-0.1824,-0.1879,-0.1884,-0.1888,-0.1952,-0.1914,-0.1916,-0.1917,-0.2004,-0.2005,-0.2007,0,0,0,0,0,0,-0.1736,-0.1738,-0.1755,-0.1762,-0.1766,-0.1789,-0.1794,-0.1807,-0.1836,-0.1814,-0.1818,-0.1822,-0.1874,-0.1882,-0.1886,-0.1906,-0.1912,-0.1914,-0.1915,-0.1916,-0.2005,-0.2006,0,0,0,0,0,0,-0.1738,-0.174,-0.1761,-0.1764,-0.1768,-0.1805,-0.1802,-0.1825,-0.1836,-0.1812,-0.1839,-0.184,-0.1871,-0.1876,-0.1884,-0.1902,-0.1905,-0.1912,-0.1913,-0.1914,-0.1915,0,0,0,0,0,0,0,-0.1739,-0.1713,-0.1734,-0.1766,-0.177,-0.1785,-0.1786,-0.1787,-0.1837,-0.1838,-0.1839,-0.1839,-0.1903,-0.1905,-0.1907,-0.1899,0,0,-0.1912,-0.1913,0,0,0,0,0,0,0,0,-0.1713,-0.1713,-0.1735,-0.1735,-0.1736,-0.1785,-0.1786,-0.1787,-0.1837,-0.1838,-0.1838,-0.1839,-0.1904,-0.1905,-0.1907,0,0,0,0,0,0,0,0,0,0,0,0,0,0,0,-0.1735,-0.1735,0,-0.1785,-0.1786,-0.1786,-0.1837,-0.1838,-0.1838,-0.1839,-0.1904,-0.1905,-0.1907,0,0,0,0,0,0,0,0,0,0,0,0,0,0,0,0,0,0,0,0,0,0,0,0,0,0,0,0,0,0,0,0,0,0,0,0,0,0,0,0,0,0,0,0,0,0,0,0,0,0,0,0,0,0,0,0,0,0,0,0,0,0,0,0,0,0,0,0,0]}],[{"header":{"parameterUnit":"kt","parameterCategory":2,"dx":1,"dy":1,"la1":30.253999710083008,"la2":30.299108505249023,"lo1":-89.0895004272461,"lo2":-89.04439544677734,"nx":28,"ny":28,"refTime":"2022-09-27T15:00:00:Z","depth":"4","parameterNumber":3,"parameterNumberName":"V-component_of_CURRENTS"},"data":[-0.0353,-0.0421,-0.0475,-0.0592,-0.0669,-0.0764,-0.081,-0.081,-0.078,-0.0744,-0.0617,-0.0531,-0.0298,-0.0418,-0.0063,-0.0014,0.0028,0.0301,0.0304,0.0349,0.0344,0.0339,0.0319,0,0,0,0,0,-0.0351,-0.0402,-0.048,-0.0576,-0.0663,-0.0717,-0.0772,-0.0782,-0.0776,-0.0738,-0.0697,-0.0566,-0.0325,-0.0207,-0.0063,0.0006,0.0174,0.0181,0.0214,0.0346,0.034,0.0323,0,0,0,0,0,0,-0.0355,-0.0392,-0.0461,-0.054,-0.0623,-0.0697,-0.0719,-0.0731,-0.0736,-0.068,-0.0655,-0.0492,-0.039,-0.0156,-0.0018,0.0124,0.0151,0.0186,0.0189,0.0185,0.0149,0.0122,0.0149,0,0,0,0,0,-0.035,-0.0384,-0.0425,-0.0516,-0.0573,-0.0635,-0.0679,-0.0694,-0.0683,-0.0655,-0.0584,-0.0452,-0.0315,-0.0132,0.0022,0.0146,0.0241,0.0287,0.0284,0.0273,0.0264,0.0281,0.0275,0.0317,0.0316,0.0315,0.0315,0,-0.0347,-0.037,-0.0442,-0.0484,-0.0507,-0.0552,-0.0584,-0.0576,-0.059,-0.0543,-0.054,-0.0428,-0.0343,-0.0132,0.0013,0.0193,0.0216,0.0271,0.0258,0.0254,0.0273,0.0269,0.0264,0.031,0.0311,0.0311,0.0311,0,-0.0345,-0.0368,-0.0409,-0.0443,-0.0461,-0.0488,-0.0518,-0.0535,-0.0502,-0.0499,-0.0483,-0.0374,-0.0264,-0.0132,-0.0007,0.0076,0.0181,0.022,0.0146,0.0166,0.0257,0.0255,0.0302,0.0304,0.0306,0.0307,0.0308,0,-0.034,-0.0362,-0.0396,-0.0409,-0.0449,-0.043,-0.0459,-0.0439,-0.0414,-0.0415,-0.0328,-0.0301,-0.0177,-0.0098,-0.0016,0.0098,0.0081,0.0171,0.0195,0.0131,0.0129,0.016,0.0161,0.0143,0.0142,0.0142,0.0142,0,-0.0327,-0.0346,-0.0374,-0.0374,-0.0375,-0.0385,-0.0384,-0.0348,-0.0344,-0.0292,-0.028,-0.0203,-0.0168,-0.0099,0.0,-0.0003,0.0091,0.0101,0.0177,0.018,0.0158,0.0161,0.0141,0.0141,0.0141,0.0141,0.0141,0,-0.0306,-0.0321,-0.0342,-0.0355,-0.0352,-0.0352,-0.0338,-0.0322,-0.0271,-0.0243,-0.02,-0.0149,-0.0099,-0.0073,0.0009,-0.0005,0.0039,0.0081,0.0084,0.0145,0.0178,0.0165,0.0135,0.0135,0.0134,0.0134,0.0134,0,-0.0299,-0.0315,-0.0302,-0.0312,-0.0312,-0.0276,-0.0264,-0.0229,-0.0197,-0.0168,-0.0111,-0.0081,-0.0044,-0.0031,-0.0006,0.0052,0.0067,0.0048,0.0132,0.0135,0.0172,0.0156,0.0078,0.0129,0.013,0.013,0.0131,0,-0.0282,-0.0282,-0.0281,-0.0289,-0.0248,-0.0231,-0.0213,-0.0176,-0.0171,-0.0117,-0.0098,-0.0051,-0.0023,0.0002,0.0041,0.006,0.0063,0.0085,0.0087,0.0105,0.0107,0.0146,0.0153,0.0078,0.0078,0.0078,0.0127,0,-0.0266,-0.0269,-0.0268,-0.0249,-0.0226,-0.0211,-0.0161,-0.0143,-0.0114,-0.0072,-0.0042,0.0009,0.005,0.006,0.0089,0.0096,0.0113,0.0131,0.0158,0.0131,0.0157,0.0159,0.0151,0.0152,0.0153,0.0153,0,0,-0.0252,-0.025,-0.0219,-0.0211,-0.0192,-0.0137,-0.0128,-0.0093,-0.0027,-0.0012,0.0004,0.0073,0.0107,0.0135,0.0128,0.0145,0.0163,0.0151,0.0142,0.014,0.0139,0.0162,0.0163,0.0155,0.0155,0.0156,0.0156,0,-0.0235,-0.0224,-0.0228,-0.02,-0.0156,-0.0116,-0.0114,-0.0046,-0.002,0.0009,0.0054,0.0078,0.0124,0.0158,0.018,0.0158,0.0194,0.016,0.0129,0.0149,0.0146,0.0144,0.0165,0.0166,0.0158,0.0158,0.0158,0,-0.0215,-0.0191,-0.0189,-0.0146,-0.0108,-0.0085,-0.0036,-0.0004,0.0016,0.0076,0.0104,0.0136,0.0181,0.0198,0.0206,0.022,0.0226,0.0223,0.0219,0.022,0.0243,0.0239,0.0236,0.028,0.028,0.0281,0,0,-0.0202,-0.0202,-0.0142,-0.0135,-0.0118,-0.0053,-0.0027,0.0009,0.0058,0.0076,0.0118,0.0155,0.0184,0.0199,0.0229,0.024,0.0265,0.0236,0.023,0.0225,0.0224,0.0245,0.0242,0.0281,0.0281,0.0281,0,0,-0.0182,-0.0135,-0.0122,-0.0111,-0.0067,0.0014,0.0025,0.006,0.0099,0.0099,0.0156,0.0168,0.0183,0.0211,0.0216,0.0234,0.026,0.026,0.0214,0.0208,0.0202,0.0194,0.0258,0,0,0,0,0,-0.0139,-0.0145,-0.0134,-0.0124,-0.0052,0.0001,0.0013,0.007,0.0086,0.0093,0.0133,0.016,0.0226,0.0232,0.0241,0.0229,0.0291,0.0289,0.0288,0.0231,0.0224,0.0218,0,0,0,0,0,0,-0.0135,-0.0125,-0.0133,-0.0058,-0.0041,0.0001,0.0042,0.0058,0.0087,0.0093,0.0152,0.0162,0.0201,0.023,0.0237,0.0225,0.0256,0.029,0.0289,0.0288,0.0229,0.0223,0.0218,0,0,0,0,0,-0.0131,-0.0123,-0.003,-0.0056,-0.0041,0.0034,0.0042,0.0056,0.0079,0.0141,0.0153,0.0118,0.02,0.0209,0.0234,0.022,0.0251,0.0254,0.0289,0.0288,0.0287,0.0226,0,0,0,0,0,0,-0.0128,-0.0104,-0.0024,-0.0016,-0.0055,0.0033,0.0046,0.0053,0.0126,0.0138,0.0109,0.0113,0.0199,0.0207,0.0214,0.0216,0.0247,0.025,0.0251,0.0289,0.0288,0.0287,0,0,0,0,0,0,-0.0108,-0.0099,-0.002,-0.0022,-0.0014,0.0032,0.0043,0.0069,0.0125,0.0089,0.0095,0.011,0.0181,0.0205,0.021,0.025,0.0244,0.0246,0.0248,0.0249,0.0288,0.0287,0,0,0,0,0,0,-0.0102,-0.0094,-0.0024,-0.0018,-0.001,0.0085,0.0056,0.012,0.014,0.0084,0.0142,0.0143,0.0177,0.0184,0.0208,0.0245,0.0249,0.0244,0.0245,0.0247,0.0248,0,0,0,0,0,0,0,-0.0098,-0.0175,-0.0072,-0.0014,-0.0007,0.0058,0.0061,0.0063,0.0141,0.0141,0.0142,0.0142,0.0229,0.0231,0.0234,0.0241,0,0,0.0243,0.0245,0,0,0,0,0,0,0,0,-0.0177,-0.0176,-0.0072,-0.007,-0.0068,0.0059,0.0061,0.0062,0.0141,0.0141,0.0142,0.0142,0.0229,0.0232,0.0234,0,0,0,0,0,0,0,0,0,0,0,0,0,0,0,-0.0072,-0.007,0,0.0059,0.0061,0.0062,0.0141,0.0141,0.0142,0.0142,0.023,0.0232,0.0234,0,0,0,0,0,0,0,0,0,0,0,0,0,0,0,0,0,0,0,0,0,0,0,0,0,0,0,0,0,0,0,0,0,0,0,0,0,0,0,0,0,0,0,0,0,0,0,0,0,0,0,0,0,0,0,0,0,0,0,0,0,0,0,0,0,0,0,0,0]}]]]